Regional Weather Roundup
Issued by NWS

Home | Current Version | Previous Version | Text Only | Print | Product List | Glossary On
Versions: 1 2 3 4 5 6 7 8 9 10 11 12 13 14 15 16 17 18 19 20 21 22 23 24 25 26 27 28
000
ASCA42 TJSJ 171410
RWRPR
PUERTO RICO/U.S. VIRGIN ISLANDS HOURLY WEATHER ROUNDUP
NATIONAL WEATHER SERVICE SAN JUAN PR
1000 AM AST THU AUG 17 2017

PRZ001>002-007>008-010-171500-
PUERTO RICO

CITY           SKY/WX    TMP DP  RH WIND       PRES   REMARKS
SAN JUAN LMM   LGT RAIN  75  75 100 E8        29.98F
AGUADILLA      MOSUNNY   79  75  89 CALM      29.98R
CEIBA          LGT RAIN  75  75 100 CALM      30.05R FOG
$$

VIZ001>002-171500-
U.S. VIRGIN ISLANDS

CITY           SKY/WX    TMP DP  RH WIND       PRES   REMARKS
CHARLOTTE AMA  PTSUNNY   81  77  89 E9        29.99S
CHRISTIANSTED  MOSUNNY   84  79  84 E18       30.00R HX  96
$$

HOURLY WEATHER ROUNDUP FOR THE NEWS MEDIA

CITY           SKY/WX    TMP DP  RH WIND       PRES   REMARKS
ORLANDO        SUNNY     85  77  77 VRB5      30.10S HX  95
NEW YORK       PTSUNNY   76  62  62 SE8       30.08S
NEWARK         PTSUNNY   77  58  51 VRB5      30.07S
CHICAGO        CLOUDY    74  69  85 S12       29.76F
HARTFORD       SUNNY     73  47  39 CALM      30.07R
BOSTON         PTSUNNY   72  48  42 MISG      30.07
DALLAS         CLOUDY    75  73  93 SE12      30.00F
PHILADELPHIA   MOSUNNY   79  62  56 E7        30.06S
LOS ANGELES    PTCLDY    67  62  84 VRB3      30.00R
WASHINGTON DC  MOSUNNY   79  73  82 SW7       30.04S



USA.gov is the U.S. government's official web portal to all federal, state and local government web resources and services.